Location: Unspecified
(0.0000°N, 0.0000°E)
Time: 23:51:52
(UTC+00:00)

ISS - Pass Details

Date: 16 July 2019
Orbit: 409 x 418 km, 51.6° (Epoch: 23 July)

Event Time Altitude Azimuth Distance (km) Brightness Sun altitude
Rises 19:16:30 0° 239° (WSW) 2,354 0.6 -16.4°
Reaches altitude 10° 19:18:58 10° 256° (WSW) 1,488 -0.2 -16.9°
Maximum altitude 19:21:30 20° 306° (NW) 1,023 -0.9 -17.5°
Drops below altitude 10° 19:24:01 10° 355° (N) 1,479 -0.6 -18.1°
Sets 19:26:28 0° 13° (NNE) 2,336 0.2 -18.7°
